WetterOnline ( https://www.wetteronline.ch )

Wetter aktuell Trostberg

Aktuelles Wetter: Chieming (553m)

6-stündlich | Neueste Meldungen
Ortszeit Temperatur Wetter
Di, 28.06. 2:00 16.3° C wolkig
Mo, 27.06. 20:00 23.0° C bewölkt
Mo, 27.06. 14:00 28.8° C wolkenlos
Mo, 27.06. 8:00 21.2° C fast wolkenlos
Mo, 27.06. 2:00 17.9° C wolkenlos
So, 26.06. 20:00 25.2° C leicht bewölkt
So, 26.06. 14:00 25.8° C wolkenlos
So, 26.06. 8:00 17.7° C wolkenlos
Ortszeit Temperatur Wetter
Di, 28.06. 5:00 16.1° C bedeckt
Di, 28.06. 4:50 16.1° C bedeckt
Di, 28.06. 4:40 16.1° C Sprühregen
Di, 28.06. 4:30 16.1° C Sprühregen
Di, 28.06. 4:20 16.1° C Sprühregen
Di, 28.06. 4:10 16.2° C Sprühregen
Di, 28.06. 4:00 16.2° C Sprühregen
Di, 28.06. 3:30 16.4° C Sprühregen
Di, 28.06. 3:00 16.9° C bewölkt
Di, 28.06. 2:30 16.9° C leicht bewölkt
Di, 28.06. 2:00 16.3° C wolkig
Ortszeit Relative Feuchte Sichtweite
Di, 28.06. 2:00 94% 30 km
Mo, 27.06. 20:00 71% 50 km
Mo, 27.06. 14:00 49% 40 km
Mo, 27.06. 8:00 68% 50 km
Mo, 27.06. 2:00 82% 60 km
So, 26.06. 20:00 50% >70 km
So, 26.06. 14:00 54% 60 km
So, 26.06. 8:00 81% >70 km
Ortszeit Relative Feuchte Sichtweite
Di, 28.06. 5:00 95% 35 km
Di, 28.06. 4:50 95% -
Di, 28.06. 4:40 96% -
Di, 28.06. 4:30 96% 15 km
Di, 28.06. 4:20 96% -
Di, 28.06. 4:10 96% -
Di, 28.06. 4:00 94% 15 km
Di, 28.06. 3:30 93% 30 km
Di, 28.06. 3:00 95% 30 km
Di, 28.06. 2:30 91% 55 km
Di, 28.06. 2:00 94% 30 km
Ortszeit Niederschlagsmenge Niederschlagsart
Di, 28.06. 2:00 10 l/m2 in 6 Std. Regen
Mo, 27.06. 20:00 0.1 l/m2 in 12 Std. Niederschlag
Mo, 27.06. 14:00 0.0 l/m2 in 6 Std. -
Mo, 27.06. 8:00 0.0 l/m2 in 12 Std. -
Mo, 27.06. 2:00 0.0 l/m2 in 6 Std. -
So, 26.06. 20:00 0.1 l/m2 in 12 Std. Niederschlag
So, 26.06. 14:00 0.0 l/m2 in 6 Std. -
So, 26.06. 8:00 0.0 l/m2 in 12 Std. -
Ortszeit Niederschlagsmenge Niederschlagsart
Di, 28.06. 5:00 0.1 l/m2 in 1 Std. Regen
Di, 28.06. 4:50 keine Meldung -
Di, 28.06. 4:40 keine Meldung -
Di, 28.06. 4:30 0.1 l/m2 in 1 Std. -
Di, 28.06. 4:20 keine Meldung -
Di, 28.06. 4:10 keine Meldung -
Di, 28.06. 4:00 0.1 l/m2 in 1 Std. Sprühregen
Di, 28.06. 3:30 0.1 l/m2 in 1 Std. -
Di, 28.06. 3:00 0.0 l/m2 in 1 Std. -
Di, 28.06. 2:30 0.0 l/m2 in 1 Std. -
Di, 28.06. 2:00 0.6 l/m2 in 1 Std. Regen
Ortszeit Stärke Spitze Richtung
km/h Bft. km/h Grad Sektor
Di, 28.06. 2:00 9 2 57 150° SO
Mo, 27.06. 20:00 22 4 43 270° W
Mo, 27.06. 14:00 14 3 29 40° NO
Mo, 27.06. 8:00 11 2 40 250° W
Mo, 27.06. 2:00 13 3 22 80° O
So, 26.06. 20:00 17 3 33 80° O
So, 26.06. 14:00 17 3 28 60° NO
So, 26.06. 8:00 4 1 14 190° S
Ortszeit Stärke Spitze Richtung
km/h Bft. km/h Grad Sektor
Di, 28.06. 5:00 0 0 7 - -
Di, 28.06. 4:50 2 1 - 170° S
Di, 28.06. 4:40 4 1 - 120° SO
Di, 28.06. 4:30 4 1 7 90° O
Di, 28.06. 4:20 4 1 - 90° O
Di, 28.06. 4:10 4 1 - 80° O
Di, 28.06. 4:00 6 1 22 350° N
Di, 28.06. 3:30 13 3 22 350° N
Di, 28.06. 3:00 7 2 15 320° NW
Di, 28.06. 2:30 7 2 15 330° NW
Di, 28.06. 2:00 9 2 28 150° SO
Ortszeit Untergrenze Bedeckung Gattung
total tief tief mittel hoch
Di, 28.06. 2:00 2400 m 8/8 1/8 - - -
Mo, 27.06. 20:00 1500 m 7/8 6/8 - - -
Mo, 27.06. 14:00 - 0/8 0/8 - - -
Mo, 27.06. 8:00 10500 m 2/8 0/8 - - -
Mo, 27.06. 2:00 - 0/8 0/8 - - -
So, 26.06. 20:00 8400 m 6/8 0/8 - - -
So, 26.06. 14:00 - 0/8 0/8 - - -
So, 26.06. 8:00 - 0/8 0/8 - - -
Ortszeit Bedeckungsgrad in Achtel und Wolkenuntergrenze
Di, 28.06. 5:00 3(810m) 6(1440m) 8(1500m)
Di, 28.06. 4:50 3(810m) 6(1440m) 8(1500m)
Di, 28.06. 4:40 8
Di, 28.06. 4:30 3(720m) 6(960m) 8(1200m)
Di, 28.06. 4:20 3(720m) 6(960m) 8(1200m)
Di, 28.06. 4:10 8
Di, 28.06. 4:00 5(630m) 5(960m) 8(1380m)
Di, 28.06. 3:30 6(540m) 7(780m)
Di, 28.06. 3:00 4(480m) 5(1140m) 7(1440m)
Di, 28.06. 2:30 2(840m) 4(6600m)
Di, 28.06. 2:00 1(2400m) 6(4500m) 8(6000m)
Ortszeit Luftdruck NN (hPa) Tendenz (hPa in 3 Std.)
Di, 28.06. 2:00 1020 + 0,2
Mo, 27.06. 20:00 1014 + 2,2
Mo, 27.06. 14:00 1010 - 1,2
Mo, 27.06. 8:00 1014 + 2,1
Mo, 27.06. 2:00 1012 - 1,2
So, 26.06. 20:00 1011 - 0,7
So, 26.06. 14:00 1013 - 0,9
So, 26.06. 8:00 1016 + 1,5
Ortszeit Luftdruck NN (hPa) Tendenz (hPa in 3 Std.)
Di, 28.06. 5:00 1022 + 2,3
Di, 28.06. 4:50 1022 keine Meldung
Di, 28.06. 4:40 1022 keine Meldung
Di, 28.06. 4:30 1022 + 2,9
Di, 28.06. 4:20 1022 keine Meldung
Di, 28.06. 4:10 1022 keine Meldung
Di, 28.06. 4:00 1022 - 0,2
Di, 28.06. 3:30 1022 - 0,5
Di, 28.06. 3:00 1021 - 0,1
Di, 28.06. 2:30 1021 0,0
Di, 28.06. 2:00 1020 + 0,2
Ortszeit Schneehöhe (cm)
Di, 28.06. 2:00 0
Mo, 27.06. 20:00 0
Mo, 27.06. 14:00 0
Mo, 27.06. 8:00 0
Mo, 27.06. 2:00 0
So, 26.06. 20:00 0
So, 26.06. 14:00 0
So, 26.06. 8:00 0
Ortszeit Schneehöhe (cm)
Di, 28.06. 5:00 0
Di, 28.06. 4:50 0
Di, 28.06. 4:40 0
Di, 28.06. 4:30 0
Di, 28.06. 4:20 0
Di, 28.06. 4:10 0
Di, 28.06. 4:00 0
Di, 28.06. 3:30 0
Di, 28.06. 3:00 0
Di, 28.06. 2:30 0
Di, 28.06. 2:00 0
Link zu dieser Seite / Seite empfehlen

Das Wetter in ...